Gainesville, FL

7:10 PM EST on December 15, 2019 (GMT -0500)
Gainesville Regional

Weather History for KGNV - October, 2019

Change the Weather History Date:

Monday, October 7, 2019

  Actual Average Record
Temperature  
Mean Temperature 76 °F 74 °F  
Max Temperature 81 °F 83 °F 95 °F (1911)
Min Temperature 70 °F 64 °F 45 °F (2010)
Degree Days  
Heating Degree Days 0 0  
Month to date heating degree days 0 0  
Since 1 July heating degree days 0 0  
Cooling Degree Days 11 9  
Month to date cooling degree days 94 67  
Year to date cooling degree days 3110 2407  
Growing Degree Days 26 (Base 50)    
Moisture  
Dew Point 71 °F    
Average Humidity 88    
Maximum Humidity 97    
Minimum Humidity 79    
Precipitation  
Precipitation 1.80 in 0.12 in 3.13 in (1996)
Month to date precipitation 1.85 0.88  
Year to date precipitation 40.09 40.87  
Sea Level Pressure  
Sea Level Pressure 29.97 in    
Wind  
Wind Speed 7 mph (NNE)    
Max Wind Speed 18 mph    
Max Gust Speed 23 mph    
Visibility 7 miles    
Events Fog , Rain    
T = Trace of Precipitation, MM = Missing Value Source: NWS Daily Summary

Daily Weather History Graph

Daily Weather History Graph

Search for Another Location

Airport or City:

Astronomy

Oct. 07, 2019 Rise Set
Actual Time 7:25 AM EDT 7:07 PM EDT
Civil Twilight 7:01 AM EDT 7:31 PM EDT
Nautical Twilight 6:34 AM EDT 7:59 PM EDT
Astronomical Twilight 6:06 AM EDT 8:26 PM EDT
Moon 3:58 PM EDT (10/7) 1:49 AM EDT (10/7)
Length of Visible Light 12h 29m
Length of Day
11h 42m
Waxing Gibbous, 69% of the Moon is Illuminated
Oct 7
Waxing Gibbous
Oct 13
Full
Oct 21
Last Quarter
Oct 27
New
Nov 4
First Quarter

Hourly Weather History & Observations

Time (EDT) Temp. Heat Index Dew Point Humidity Pressure Visibility Wind Dir Wind Speed Gust Speed Precip Events Conditions
12:53 AM 72.0 °F - 69.1 °F 91% 30.04 in 10.0 mi NE 4.6 mph - N/A   Partly Cloudy
1:53 AM 73.0 °F - 69.1 °F 87% 30.01 in 10.0 mi ENE 5.8 mph - N/A   Mostly Cloudy
2:53 AM 73.9 °F - 69.1 °F 85% 30.00 in 10.0 mi ENE 6.9 mph - N/A   Clear
3:53 AM 73.0 °F - 69.1 °F 87% 29.98 in 10.0 mi NE 3.5 mph - N/A   Clear
4:53 AM 72.0 °F - 69.1 °F 91% 29.97 in 10.0 mi NNE 5.8 mph - N/A   Clear
5:53 AM 72.0 °F - 69.1 °F 91% 29.98 in 10.0 mi North 6.9 mph - N/A   Partly Cloudy
6:33 AM 72.0 °F - 69.1 °F 91% 29.99 in 10.0 mi NNE 3.5 mph - N/A   Mostly Cloudy
6:53 AM 73.0 °F - 69.1 °F 87% 29.99 in 10.0 mi NNE 5.8 mph - N/A   Scattered Clouds
7:53 AM 73.0 °F - 69.1 °F 87% 29.99 in 10.0 mi NNE 6.9 mph - N/A   Overcast
8:14 AM 73.0 °F - 69.1 °F 87% 30.00 in 10.0 mi NNE 8.1 mph - N/A   Overcast
8:46 AM 73.9 °F - 71.1 °F 91% 30.00 in 10.0 mi NE 8.1 mph - 0.00 in   Scattered Clouds
8:53 AM 75.0 °F - 71.1 °F 87% 30.00 in 10.0 mi NE 8.1 mph - 0.00 in   Scattered Clouds
9:31 AM 75.0 °F - 72.0 °F 90% 30.01 in 7.0 mi NE 6.9 mph - 0.00 in Rain Light Rain
10:11 AM 75.9 °F - 73.0 °F 91% 30.00 in 8.0 mi ENE 8.1 mph - 0.01 in Rain Light Rain
10:21 AM 75.9 °F - 73.9 °F 94% 30.00 in 10.0 mi ENE 8.1 mph - 0.01 in Rain Light Rain
10:45 AM 77.0 °F - 73.9 °F 90% 30.00 in 10.0 mi East 8.1 mph - 0.01 in Rain Light Rain
10:53 AM 77.0 °F - 73.9 °F 90% 29.99 in 10.0 mi East 6.9 mph - 0.01 in   Partly Cloudy
11:36 AM 79.0 °F - 73.9 °F 84% 30.00 in 10.0 mi NE 6.9 mph - N/A   Mostly Cloudy
11:53 AM 80.1 °F 84.5 °F 73.9 °F 81% 29.99 in 10.0 mi NNE 4.6 mph - N/A   Mostly Cloudy
12:00 PM 81.0 °F 85.8 °F 73.0 °F 77% 30.00 in 10.0 mi NE 6.9 mph - N/A   Mostly Cloudy
12:44 PM 79.0 °F - 73.0 °F 82% 29.98 in 1.8 mi North 4.6 mph - 0.03 in Rain Heavy Rain
12:47 PM 78.8 °F - 73.4 °F 83% 29.98 in 3.0 mi Calm Calm - 0.04 in Rain Rain
12:53 PM 79.0 °F - 73.9 °F 84% 29.98 in 3.0 mi Calm Calm - 0.05 in Rain Light Rain
1:13 PM 79.0 °F - 73.9 °F 84% 29.98 in 3.0 mi NW 3.5 mph - 0.02 in Rain Light Rain
1:22 PM 80.1 °F 84.5 °F 73.9 °F 81% 29.97 in 3.0 mi NW 5.8 mph - 0.02 in   Haze
1:29 PM 80.1 °F 85.1 °F 75.0 °F 85% 29.97 in 3.0 mi NNW 4.6 mph - 0.02 in   Haze
1:53 PM 80.1 °F 85.1 °F 75.0 °F 85% 29.95 in 10.0 mi NNW 5.8 mph - 0.02 in Rain Light Rain
2:01 PM 80.1 °F 84.5 °F 73.9 °F 81% 29.95 in 5.0 mi NNE 3.5 mph - 0.01 in Rain Rain
2:45 PM 79.0 °F - 72.0 °F 79% 29.93 in 10.0 mi ENE 8.1 mph - 0.05 in   Overcast
2:53 PM 78.1 °F - 72.0 °F 81% 29.92 in 10.0 mi ENE 8.1 mph - 0.05 in Rain Light Rain
3:17 PM 77.0 °F - 73.0 °F 88% 29.94 in 1.8 mi Variable 5.8 mph - 0.02 in Rain Heavy Rain
3:20 PM 75.9 °F - 73.0 °F 91% 29.94 in 0.8 mi ENE 11.5 mph 17.3 mph 0.10 in Rain Heavy Rain
3:33 PM 73.9 °F - 71.1 °F 91% 29.94 in 1.8 mi NNE 6.9 mph - 0.54 in Rain Light Rain
3:40 PM 73.9 °F - 72.0 °F 93% 29.94 in 9.0 mi NNE 11.5 mph - 0.55 in Rain Light Rain
3:50 PM 73.4 °F - 71.6 °F 94% 29.94 in 1.8 mi NNW 8.1 mph - 0.57 in Rain Rain
3:53 PM 73.9 °F - 72.0 °F 93% 29.94 in 1.8 mi North 10.4 mph - 0.58 in Rain Rain
3:56 PM 73.9 °F - 72.0 °F 93% 29.94 in 2.0 mi North 12.7 mph 19.6 mph 0.01 in Rain Rain
4:05 PM 73.0 °F - 70.0 °F 90% 29.93 in 4.0 mi North 12.7 mph - 0.02 in Rain Rain
4:25 PM 72.0 °F - 70.0 °F 93% 29.94 in 1.8 mi NNE 8.1 mph - 0.05 in Rain Rain
4:35 PM 71.1 °F - 69.1 °F 93% 29.94 in 0.5 mi North 5.8 mph - 0.29 in Fog , Rain Heavy Rain
4:53 PM 72.0 °F - 70.0 °F 93% 29.94 in 2.0 mi North 9.2 mph - 0.43 in Rain Rain
5:00 PM 72.0 °F - 70.0 °F 93% 29.94 in 0.8 mi NNE 13.8 mph 19.6 mph 0.12 in Rain Heavy Rain
5:16 PM 72.0 °F - 70.0 °F 93% 29.94 in 1.0 mi NNE 15.0 mph 20.7 mph 0.40 in Rain Heavy Rain
5:31 PM 72.0 °F - 70.0 °F 93% 29.95 in 3.0 mi NNE 12.7 mph - 0.48 in Rain Rain
5:53 PM 71.1 °F - 69.1 °F 93% 29.94 in 6.0 mi NNE 13.8 mph - 0.50 in Rain Light Rain
6:53 PM 70.0 °F - 68.0 °F 93% 29.95 in 7.0 mi NNE 9.2 mph - 0.06 in Rain Light Rain
7:53 PM 71.1 °F - 69.1 °F 93% 29.94 in 10.0 mi NNE 6.9 mph - 0.06 in Rain Light Rain
8:53 PM 71.1 °F - 69.1 °F 93% 29.96 in 10.0 mi NE 9.2 mph - 0.02 in Rain Light Rain
9:53 PM 71.1 °F - 69.1 °F 93% 29.96 in 7.0 mi ENE 5.8 mph - 0.01 in Rain Light Rain
10:02 PM 71.1 °F - 70.0 °F 96% 29.97 in 9.0 mi NE 4.6 mph - 0.01 in Rain Light Rain
10:11 PM 72.0 °F - 70.0 °F 93% 29.97 in 10.0 mi NNE 4.6 mph - 0.01 in Rain Light Rain
10:53 PM 72.0 °F - 70.0 °F 93% 29.96 in 10.0 mi North 4.6 mph - 0.01 in   Mostly Cloudy
11:31 PM 72.0 °F - 70.0 °F 93% 29.95 in 10.0 mi NNE 4.6 mph - N/A   Overcast
11:53 PM 72.0 °F - 70.0 °F 93% 29.94 in 10.0 mi NNE 5.8 mph - N/A   Mostly Cloudy